Zurück zum Katalog

CZ-6A DEB

AktivSSO
NORAD 54433·DEBRIS·🇨🇳 China

Gestartet Nov 11, 2022 von Taiyuan Satellite Launch Center

Loading…

Nächste Überflüge (nächste 24 Stunden)

TLE

AktuellSource: Space-Track

Epoche: Sep 14, 2026, 07:33 UTC

1 54433U 22151FH  26257.31484395  .00000197  00000-0  23452-3 0  9995
2 54433  99.2566 207.3843 0260958  34.2239 327.5421 13.64656849190958

Verfolge CZ-6A DEB in Echtzeit mit AllMySat

Download on the App Store